Weather History for Kalispell, MT

Change the Weather History Date:

Tuesday, October 15, 2013

  Actual Average Record
Temperature  
Mean Temperature 36 °F 42 °F  
Max Temperature 52 °F 55 °F 79 °F (1991)
Min Temperature 19 °F 29 °F 17 °F (1970)
Degree Days  
Heating Degree Days 29 23  
Month to date heating degree days 366 300  
Since 1 July heating degree days 639 800  
Cooling Degree Days 0 0  
Month to date cooling degree days 0 0  
Year to date cooling degree days 264 147  
Moisture  
Dew Point 26 °F    
Average Humidity 71    
Maximum Humidity 100    
Minimum Humidity 41    
Precipitation  
Precipitation 0.00 in 0.03 in 0.34 in (2003)
Month to date precipitation 0.24 0.44  
Year to date precipitation 13.27 13.43  
Snow  
Snow 0.00 in - - ()
Month to date snowfall 0.0  
Year to date snowfall 10.1  
Since 1 July snowfall 0.0  
Snow Depth 0.00 in    
Sea Level Pressure  
Sea Level Pressure 30.38 in    
Wind  
Wind Speed 2 mph (SE)    
Max Wind Speed 13 mph    
Max Gust Speed 20 mph    
Visibility 10 miles    
Events      
T = Trace of Precipitation, MM = Missing Value Source: NWS Daily Summary

Daily Weather History Graph

Daily Weather History Graph

Search for Another Location

Airport:

Trip Planner

Search our weather history database for the weather conditions in past years. The results will help you decide how hot, cold, wet, or windy it might be!

Date:

Astronomy

Oct. 15, 2013 Rise Set
Actual Time 7:57 AM MDT 6:47 PM MDT
Civil Twilight 7:25 AM MDT 7:18 PM MDT
Nautical Twilight 6:49 AM MDT 7:55 PM MDT
Astronomical Twilight 6:13 AM MDT 8:31 PM MDT
Moon 5:07 PM MDT (10/15) 4:09 AM MDT (10/15)
Length of Visible Light 11h 53m
Length of Day
10h 50m
Waxing Gibbous, 88% of the Moon is Illuminated
Oct 15
Waxing Gibbous
Oct 18
Full
Oct 26
Last Quarter
Nov 3
New
Nov 9
First Quarter

Hourly Weather History & Observations

Time (MDT) Temp. Windchill Dew Point Humidity Pressure Visibility Wind Dir Wind Speed Gust Speed Precip Events Conditions
12:55 AM 24.1 °F - 21.9 °F 91% 30.46 in 10.0 mi Calm Calm - N/A   Clear
1:55 AM 23.0 °F - 21.0 °F 92% 30.46 in 10.0 mi Calm Calm - N/A   Clear
2:55 AM 21.9 °F - 19.9 °F 92% 30.47 in 8.0 mi Calm Calm - N/A   Clear
3:55 AM 21.9 °F - 21.0 °F 96% 30.47 in - Calm Calm - N/A   Clear
4:55 AM 19.9 °F - 18.0 °F 92% 30.47 in - Calm Calm - N/A   Clear
5:55 AM 21.0 °F - 19.0 °F 92% 30.47 in - Calm Calm - N/A   Clear
6:55 AM 19.9 °F - 18.0 °F 92% 30.48 in - Calm Calm - N/A   Clear
7:26 AM 19.4 °F - 17.6 °F 93% 30.39 in 10.0 mi Calm Calm - N/A   Clear
7:55 AM 21.9 °F - 19.0 °F 89% 30.49 in 10.0 mi Calm Calm - N/A   Clear
8:55 AM 25.0 °F - 21.0 °F 85% 30.50 in 10.0 mi Calm Calm - N/A   Clear
9:55 AM 33.1 °F - 28.0 °F 82% 30.49 in 10.0 mi Calm Calm - N/A   Clear
10:55 AM 37.9 °F 34.4 °F 30.9 °F 76% 30.47 in 10.0 mi NE 4.6 mph - N/A   Clear
11:55 AM 42.1 °F 40.2 °F 30.9 °F 65% 30.44 in 10.0 mi NNE 3.5 mph - N/A   Clear
12:55 PM 46.0 °F - 30.9 °F 56% 30.41 in 10.0 mi Calm Calm - N/A   Clear
1:55 PM 48.0 °F - 30.9 °F 52% 30.37 in 10.0 mi South 6.9 mph - N/A   Clear
2:55 PM 51.1 °F - 30.9 °F 46% 30.33 in 10.0 mi South 11.5 mph 19.6 mph N/A   Clear
3:55 PM 51.1 °F - 30.9 °F 46% 30.30 in 10.0 mi SSE 10.4 mph - N/A   Clear
4:55 PM 51.1 °F - 28.0 °F 41% 30.30 in 10.0 mi SSE 10.4 mph - N/A   Clear
5:55 PM 48.0 °F - 30.0 °F 50% 30.28 in 10.0 mi SSE 6.9 mph - N/A   Clear
6:55 PM 46.0 °F 43.9 °F 28.9 °F 51% 30.28 in 10.0 mi South 4.6 mph - N/A   Clear
7:55 PM 37.0 °F - 28.9 °F 73% 30.28 in 10.0 mi Calm Calm - N/A   Clear
8:55 PM 35.1 °F - 28.9 °F 78% 30.27 in 10.0 mi Calm Calm - N/A   Clear
9:55 PM 32.0 °F - 28.0 °F 85% 30.26 in 10.0 mi Calm Calm - N/A   Clear
10:55 PM 30.9 °F - 28.0 °F 89% 30.24 in 10.0 mi Calm Calm - N/A   Clear
11:55 PM 30.0 °F - 28.0 °F 92% 30.24 in 9.0 mi Calm Calm - N/A   Clear